TimeCST,TemperatureF,Dew PointF,Humidity,Sea Level PressureIn,VisibilityMPH,Wind Direction,Wind SpeedMPH,Gust SpeedMPH,PrecipitationIn,Events,Conditions,WindDirDegrees,DateUTC
12:14 AM,39.2,33.8,81,29.81,10.0,SSE,10.4,-,N/A,,Scattered Clouds,150,2012-11-08 06:14:00
12:34 AM,39.2,33.8,81,29.80,10.0,SE,11.5,-,N/A,,Scattered Clouds,140,2012-11-08 06:34:00
12:54 AM,39.2,35.6,87,29.79,10.0,SE,11.5,-,N/A,Rain,Light Rain,140,2012-11-08 06:54:00
1:13 AM,39.2,35.6,87,29.78,10.0,SSE,11.5,-,N/A,Rain,Light Rain,150,2012-11-08 07:13:00
1:34 AM,39.2,35.6,87,29.77,10.0,SSE,12.7,16.1,N/A,,Overcast,160,2012-11-08 07:34:00
1:54 AM,39.2,35.6,87,29.77,10.0,SSE,12.7,-,N/A,,Overcast,160,2012-11-08 07:54:00
2:14 AM,39.2,35.6,87,29.77,10.0,South,9.2,-,N/A,,Mostly Cloudy,170,2012-11-08 08:14:00
2:34 AM,39.2,35.6,87,29.77,10.0,South,8.1,-,N/A,,Mostly Cloudy,170,2012-11-08 08:34:00
2:54 AM,39.2,35.6,87,29.76,10.0,South,12.7,-,N/A,,Scattered Clouds,170,2012-11-08 08:54:00
3:14 AM,39.2,35.6,87,29.73,10.0,South,13.8,18.4,N/A,,Scattered Clouds,170,2012-11-08 09:14:00
3:34 AM,39.2,33.8,81,29.76,10.0,SSW,6.9,-,N/A,,Clear,200,2012-11-08 09:34:00
3:54 AM,39.2,35.6,87,29.74,10.0,South,6.9,-,N/A,,Scattered Clouds,180,2012-11-08 09:54:00
4:14 AM,39.2,35.6,87,29.74,10.0,South,8.1,-,N/A,,Mostly Cloudy,190,2012-11-08 10:14:00
4:34 AM,41.0,35.6,81,29.75,10.0,SSW,11.5,19.6,N/A,,Overcast,210,2012-11-08 10:34:00
4:54 AM,41.0,35.6,81,29.74,10.0,SSW,10.4,18.4,N/A,,Overcast,200,2012-11-08 10:54:00
5:14 AM,41.0,35.6,81,29.72,10.0,South,10.4,20.7,N/A,,Overcast,190,2012-11-08 11:14:00
5:34 AM,39.2,35.6,87,29.73,10.0,SSW,15.0,25.3,N/A,Rain,Light Rain,200,2012-11-08 11:34:00
5:54 AM,39.2,35.6,87,29.72,7.0,SSW,10.4,-,0.04,Rain,Heavy Rain,210,2012-11-08 11:54:00
6:14 AM,39.2,35.6,87,29.75,10.0,SW,10.4,-,0.01,,Light Drizzle,230,2012-11-08 12:14:00
6:34 AM,39.2,35.6,87,29.76,10.0,SW,11.5,-,0.01,,Overcast,220,2012-11-08 12:34:00
6:54 AM,39.2,35.6,87,29.76,10.0,SW,12.7,-,0.01,,Scattered Clouds,220,2012-11-08 12:54:00
7:14 AM,39.2,35.6,87,29.77,10.0,SW,12.7,19.6,N/A,,Scattered Clouds,230,2012-11-08 13:14:00
7:33 AM,39.2,35.6,87,29.77,10.0,SW,12.7,-,N/A,,Overcast,220,2012-11-08 13:33:00
7:54 AM,39.2,35.6,87,29.78,10.0,SW,10.4,18.4,N/A,,Overcast,230,2012-11-08 13:54:00
8:14 AM,39.2,35.6,87,29.79,10.0,WSW,9.2,18.4,N/A,,Overcast,240,2012-11-08 14:14:00
8:34 AM,39.2,35.6,87,29.81,10.0,WSW,12.7,17.3,N/A,,Overcast,250,2012-11-08 14:34:00
8:54 AM,39.2,35.6,87,29.81,10.0,West,11.5,18.4,N/A,,Overcast,260,2012-11-08 14:54:00
9:14 AM,39.2,35.6,87,29.82,7.0,West,13.8,19.6,N/A,,Overcast,280,2012-11-08 15:14:00
9:34 AM,39.2,35.6,87,29.84,7.0,West,11.5,17.3,N/A,,Overcast,280,2012-11-08 15:34:00
9:54 AM,39.2,35.6,87,29.85,7.0,West,11.5,-,N/A,,Overcast,280,2012-11-08 15:54:00
10:14 AM,39.2,35.6,87,29.87,5.0,WNW,8.1,-,N/A,,Overcast,290,2012-11-08 16:14:00
10:34 AM,39.2,35.6,87,29.88,5.0,WNW,13.8,20.7,N/A,,Overcast,300,2012-11-08 16:34:00
10:54 AM,39.2,35.6,87,29.89,5.0,NW,15.0,23.0,N/A,,Overcast,310,2012-11-08 16:54:00
11:14 AM,39.2,35.6,87,29.91,5.0,NW,13.8,21.9,N/A,,Overcast,310,2012-11-08 17:14:00
11:34 AM,39.2,35.6,87,29.91,5.0,NW,11.5,17.3,N/A,,Overcast,320,2012-11-08 17:34:00
11:54 AM,39.2,35.6,87,29.92,10.0,NW,10.4,18.4,N/A,,Overcast,320,2012-11-08 17:54:00
12:14 PM,39.2,35.6,87,29.93,10.0,NW,15.0,20.7,N/A,,Overcast,320,2012-11-08 18:14:00
12:34 PM,39.2,35.6,87,29.94,10.0,NW,15.0,19.6,N/A,,Overcast,320,2012-11-08 18:34:00
12:54 PM,39.2,33.8,81,29.95,10.0,NW,11.5,17.3,N/A,,Overcast,320,2012-11-08 18:54:00
1:14 PM,37.4,33.8,87,29.96,10.0,NW,11.5,19.6,N/A,,Overcast,320,2012-11-08 19:14:00
1:34 PM,39.2,33.8,81,29.97,10.0,NNW,13.8,18.4,N/A,,Overcast,330,2012-11-08 19:34:00
1:54 PM,39.2,33.8,81,29.98,10.0,North,15.0,-,N/A,,Overcast,350,2012-11-08 19:54:00
2:14 PM,37.4,33.8,87,30.00,10.0,NNW,13.8,24.2,N/A,,Overcast,340,2012-11-08 20:14:00
2:34 PM,39.2,32.0,75,30.01,10.0,NNW,12.7,18.4,N/A,,Overcast,340,2012-11-08 20:34:00
2:53 PM,39.2,32.0,75,30.02,10.0,NNW,10.4,-,N/A,,Overcast,330,2012-11-08 20:53:00
3:14 PM,37.4,32.0,81,30.02,10.0,NNW,13.8,18.4,N/A,,Overcast,330,2012-11-08 21:14:00
3:34 PM,37.4,32.0,81,30.03,10.0,NNW,15.0,21.9,N/A,,Overcast,340,2012-11-08 21:34:00
3:54 PM,37.4,32.0,81,30.05,10.0,NNW,11.5,16.1,N/A,,Overcast,330,2012-11-08 21:54:00
4:14 PM,37.4,32.0,81,30.06,10.0,NW,12.7,17.3,N/A,,Overcast,320,2012-11-08 22:14:00
4:34 PM,35.6,30.2,81,30.07,10.0,NNW,10.4,-,N/A,,Overcast,330,2012-11-08 22:34:00
4:54 PM,35.6,30.2,81,30.08,10.0,NNW,10.4,19.6,N/A,,Overcast,330,2012-11-08 22:54:00
5:14 PM,35.6,30.2,81,30.09,10.0,NNW,10.4,-,N/A,,Overcast,330,2012-11-08 23:14:00
5:34 PM,33.8,32.0,93,-9999,10.0,NNW,9.2,16.1,N/A,,Overcast,330,2012-11-08 23:34:00
5:54 PM,32.0,28.4,87,30.11,10.0,NW,8.1,-,N/A,,Mostly Cloudy,320,2012-11-08 23:54:00
6:14 PM,30.2,26.6,86,30.12,10.0,NW,8.1,-,N/A,,Scattered Clouds,320,2012-11-09 00:14:00
6:33 PM,30.2,26.6,86,30.12,10.0,NNW,5.8,-,N/A,,Scattered Clouds,330,2012-11-09 00:33:00
6:54 PM,30.2,26.6,86,30.13,10.0,NW,8.1,-,N/A,,Scattered Clouds,320,2012-11-09 00:54:00
7:14 PM,30.2,26.6,86,30.13,10.0,NNW,18.4,-,N/A,,Mostly Cloudy,340,2012-11-09 01:14:00
7:34 PM,30.2,26.6,86,30.13,10.0,NNW,16.1,23.0,N/A,,Overcast,340,2012-11-09 01:34:00
7:54 PM,30.2,26.6,86,30.14,10.0,North,12.7,18.4,N/A,,Overcast,10,2012-11-09 01:54:00
8:14 PM,30.2,24.8,80,30.14,10.0,North,11.5,17.3,N/A,,Overcast,350,2012-11-09 02:14:00
8:34 PM,30.2,24.8,80,30.15,10.0,North,11.5,17.3,N/A,,Overcast,360,2012-11-09 02:34:00
8:54 PM,30.2,24.8,80,30.15,10.0,North,10.4,-,N/A,,Overcast,360,2012-11-09 02:54:00
9:12 PM,30.2,24.8,80,30.16,10.0,North,10.4,17.3,N/A,,Overcast,360,2012-11-09 03:12:00
9:34 PM,30.2,24.8,80,30.17,10.0,North,3.5,-,N/A,,Overcast,360,2012-11-09 03:34:00
9:54 PM,30.2,24.8,80,30.17,10.0,North,8.1,-,N/A,,Overcast,360,2012-11-09 03:54:00
10:13 PM,30.2,24.8,80,30.17,10.0,North,12.7,19.6,N/A,,Overcast,360,2012-11-09 04:13:00
10:34 PM,30.2,24.8,80,30.19,10.0,NNW,6.9,-,N/A,,Overcast,340,2012-11-09 04:34:00
10:54 PM,30.2,24.8,80,30.19,10.0,NNW,6.9,-,N/A,,Overcast,340,2012-11-09 04:54:00
11:07 PM,30.2,24.8,80,30.20,10.0,NNW,6.9,-,N/A,,Overcast,340,2012-11-09 05:07:00
11:31 PM,-9999,-9999,N/A,30.19,10.0,North,6.9,-,N/A,,Overcast,350,2012-11-09 05:31:00
11:54 PM,30.2,24.8,80,30.20,10.0,Calm,Calm,-,N/A,,Overcast,350,2012-11-09 05:54:00